Time,TemperatureF,DewpointF,PressureIn,WindDirection,WindDirectionDegrees,WindSpeedMPH,WindSpeedGustMPH,Humidity,HourlyPrecipIn,Conditions,Clouds,dailyrainin,SoftwareType,DateUTC
2014-09-02 00:32:00,65.0,62.0,29.81,North,-999,0.0,-999.0,91,0.00,,,-99.99,,2014-09-02 07:32:00,
2014-09-02 00:52:00,65.0,62.0,29.81,North,-999,0.0,-999.0,91,0.00,,,-99.99,,2014-09-02 07:52:00,
2014-09-02 01:32:00,65.0,62.0,29.82,ESE,120,1.0,-999.0,91,0.00,,,-99.99,,2014-09-02 08:32:00,
2014-09-02 01:42:00,65.0,62.0,29.82,ESE,120,1.0,-999.0,91,0.00,,,-99.99,,2014-09-02 08:42:00,
2014-09-02 01:52:00,65.0,62.0,29.82,ESE,120,1.0,-999.0,91,0.00,,,-99.99,,2014-09-02 08:52:00,
2014-09-02 02:22:00,65.0,62.0,29.81,North,-999,0.0,-999.0,91,0.00,,,-99.99,,2014-09-02 09:22:00,
2014-09-02 02:43:00,65.0,62.0,29.81,North,-999,0.0,-999.0,91,0.00,,,-99.99,,2014-09-02 09:43:00,
2014-09-02 03:24:00,65.0,62.0,29.82,North,-999,0.0,-999.0,90,0.00,,,-99.99,,2014-09-02 10:24:00,
2014-09-02 03:53:00,65.0,62.0,29.82,North,-999,0.0,-999.0,90,0.00,,,-99.99,,2014-09-02 10:53:00,
2014-09-02 04:42:00,65.0,62.0,29.82,East,100,1.0,-999.0,90,0.00,,,-99.99,,2014-09-02 11:42:00,
2014-09-02 04:52:00,65.0,62.0,29.82,East,100,1.0,-999.0,90,0.00,,,-99.99,,2014-09-02 11:52:00,
2014-09-02 05:33:00,64.0,61.0,29.82,North,-999,0.0,-999.0,90,0.00,,,-99.99,,2014-09-02 12:33:00,
2014-09-02 05:43:00,64.0,61.0,29.82,North,-999,0.0,-999.0,90,0.00,,,-99.99,,2014-09-02 12:43:00,
2014-09-02 05:52:00,64.0,61.0,29.82,North,-999,0.0,-999.0,90,0.00,,,-99.99,,2014-09-02 12:52:00,
2014-09-02 06:32:00,63.0,60.0,29.83,North,-999,0.0,-999.0,91,0.00,,,-99.99,,2014-09-02 13:32:00,
2014-09-02 06:52:00,63.0,60.0,29.83,North,-999,0.0,-999.0,91,0.00,,,-99.99,,2014-09-02 13:52:00,
2014-09-02 07:23:00,63.0,60.0,29.84,North,-999,0.0,-999.0,91,0.00,,,-99.99,,2014-09-02 14:23:00,
2014-09-02 07:32:00,63.0,60.0,29.84,North,-999,0.0,-999.0,91,0.00,,,-99.99,,2014-09-02 14:32:00,
2014-09-02 07:52:00,63.0,60.0,29.84,North,-999,0.0,-999.0,91,0.00,,,-99.99,,2014-09-02 14:52:00,
2014-09-02 08:43:00,64.0,61.0,29.84,East,100,2.0,-999.0,89,0.00,,,-99.99,,2014-09-02 15:43:00,
2014-09-02 09:24:00,68.0,63.0,29.84,South,190,1.0,-999.0,83,0.00,,,-99.99,,2014-09-02 16:24:00,
2014-09-02 09:43:00,68.0,63.0,29.84,South,190,1.0,-999.0,83,0.00,,,-99.99,,2014-09-02 16:43:00,
2014-09-02 10:34:00,69.0,63.0,29.84,SW,230,2.0,-999.0,80,0.00,,,-99.99,,2014-09-02 17:34:00,
2014-09-02 11:23:00,71.0,63.0,29.84,WSW,250,1.0,-999.0,76,0.00,,,-99.99,,2014-09-02 18:23:00,
2014-09-02 11:42:00,71.0,63.0,29.84,WSW,250,1.0,-999.0,76,0.00,,,-99.99,,2014-09-02 18:42:00,
2014-09-02 11:53:00,71.0,63.0,29.84,WSW,250,1.0,-999.0,76,0.00,,,-99.99,,2014-09-02 18:53:00,
2014-09-02 12:42:00,73.0,64.0,29.83,West,270,6.0,-999.0,74,0.00,,,-99.99,,2014-09-02 19:42:00,
2014-09-02 13:42:00,74.0,64.0,29.82,West,280,7.0,-999.0,72,0.00,,,-99.99,,2014-09-02 20:42:00,
2014-09-02 14:22:00,76.0,65.0,29.80,WNW,290,5.0,-999.0,69,0.00,,,-99.99,,2014-09-02 21:22:00,